Home > Weather > Saratov > Past weeks

Flag for Russia Past Weather in Saratov, Russia — Yesterday and Last 2 Weeks

Now
72 °F

Clear.


Feels Like: 77 °F
Forecast: 63 / 79 °F
Wind: 3 mph from Southeast

Location: Saratov / Tsentralny

Current Time: May 26, 2016 at 9:29:58 PM

Latest Report: May 26, 2016 at 9:00 PM


Visibility: 10 mi

Pressure: 29.92 "Hg

Humidity: 50%

Dew Point: 52 °F

Location of SaratovLocation

Past Weather in Saratov — Graph

°F

Saratov Temperature Yesterday

Maximum temperature yesterday: 77 °F (at 5:00 PM)
Minimum temperature yesterday: 63 °F (at 1:00 AM)
Average temperature yesterday: 69 °F

High & Low Weather Summary for the Past Weeks

 TemperatureHumidityPressure
High82 °F (May 26, 1:00 PM)100% (May 12, 6:00 PM)30.04 "Hg (May 12, 6:00 PM)
Low45 °F (May 14, 4:00 AM)37% (May 26, 2:30 PM)29.62 "Hg (May 13, 3:00 AM)
Average59 °F77%29.87 "Hg
* Reported May 11 8:00 PM — May 26 8:00 PM, Saratov, Weather by CustomWeather, © 2016

Note: Actual official high and low records may vary slightly from our data, if they occured in-between our weather recording intervals... More about our weather records

Advertising

Saratov Weather History for the Previous 24 Hours

Scroll right to see more
 ConditionsComfort  
Time TempWeatherWind HumidityBarometerVisibility
8:00 PM
Thu, May 26
73 °FClear.3 mph50%29.89 "Hg10 mi
7:30 PM75 °FSunny.6 mph44%29.89 "Hg10 mi
7:00 PM75 °FSunny.6 mph44%29.89 "Hg10 mi
6:30 PM77 °FSunny.8 mph44%29.89 "Hg10 mi
6:00 PM77 °FSunny.6 mph44%29.89 "Hg10 mi
5:30 PM79 °FSunny.6 mph39%29.89 "Hg10 mi
5:00 PM79 °FSunny.6 mph39%29.89 "Hg10 mi
4:30 PM79 °FSunny.6 mph37%29.89 "Hg10 mi
4:00 PM79 °FSunny.8 mph37%29.89 "Hg10 mi
3:30 PM81 °FSunny.10 mph37%29.89 "Hg10 mi
3:00 PM81 °FSunny.10 mph37%29.89 "Hg10 mi
2:30 PM82 °FSunny.10 mph37%29.89 "Hg10 mi
2:00 PM82 °FSunny.8 mph42%29.89 "Hg10 mi
1:30 PM82 °FSunny.10 mph42%29.89 "Hg10 mi
1:00 PM82 °FSunny.13 mph42%29.89 "Hg10 mi
12:30 PM79 °FSunny.8 mph58%29.89 "Hg10 mi
12:00 PM79 °FSunny.1 mph58%29.89 "Hg10 mi
11:30 AM75 °FSunny.8 mph61%29.89 "Hg10 mi
11:00 AM75 °FSunny.6 mph61%29.89 "Hg10 mi
10:30 AM73 °FSunny.6 mph61%29.89 "Hg10 mi
10:00 AM73 °FSunny.6 mph61%29.89 "Hg10 mi
9:30 AM72 °FSunny.6 mph61%29.86 "Hg10 mi
9:00 AM72 °FSunny.6 mph61%29.86 "Hg10 mi
8:30 AM66 °FSunny.3 mph68%29.86 "Hg10 mi
8:00 AM66 °FSunny.3 mph68%29.86 "Hg10 mi
7:30 AM64 °FSunny.3 mph68%29.86 "Hg10 mi
7:00 AM64 °FSunny.3 mph68%29.86 "Hg10 mi
6:30 AM61 °FSunny.3 mph83%29.83 "Hg10 mi
6:00 AM61 °FSunny.3 mph83%29.83 "Hg10 mi
5:30 AM59 °FSunny.3 mph77%29.83 "Hg10 mi
5:00 AM59 °FSunny.1 mph77%29.83 "Hg10 mi
4:30 AM57 °FSunny.3 mph77%29.83 "Hg10 mi
4:00 AM57 °FSunny.3 mph77%29.83 "Hg10 mi
3:00 AM59 °FClear.No wind72%29.83 "Hg10 mi
2:00 AM63 °FClear.3 mph64%29.83 "Hg10 mi
1:00 AM63 °FClear.6 mph68%29.83 "Hg10 mi
12:00 AM64 °FClear.8 mph64%29.83 "Hg10 mi
11:00 PM
Wed, May 25
66 °FClear.6 mph56%29.83 "Hg10 mi
10:30 PM68 °FClear.6 mph56%29.83 "Hg10 mi
10:00 PM68 °FClear.6 mph56%29.83 "Hg10 mi
9:30 PM70 °FClear.6 mph53%29.83 "Hg10 mi
9:00 PM70 °FClear.6 mph53%29.83 "Hg10 mi
Weather by CustomWeather, © 2016

See weather overviewHow to use our weather pages